Cheyenne, WY

10:59 AM MDT on October 20, 2017 (GMT -0600)
Cheyenne

Weather History for KCYS - October, 2013

Change the Weather History Date:

Thursday, October 17, 2013

  Actual Average Record
Temperature  
Mean Temperature 33 °F 46 °F  
Max Temperature 38 °F 58 °F 79 °F (1926)
Min Temperature 28 °F 34 °F 6 °F (1948)
Degree Days  
Heating Degree Days 32 19  
Month to date heating degree days 349 281  
Since 1 July heating degree days 531 562  
Cooling Degree Days 0 0  
Month to date cooling degree days 0 0  
Year to date cooling degree days 520 348  
Moisture  
Dew Point 30 °F    
Average Humidity 80    
Maximum Humidity 100    
Minimum Humidity 59    
Precipitation  
Precipitation 0.41 in 0.03 in 0.76 in (1910)
Month to date precipitation 1.85 0.57  
Year to date precipitation 17.23 14.50  
Snow  
Snow 5.00 in 0.20 in 5.20 in (2013)
Month to date snowfall 9.7 2.4  
Since 1 July snowfall 9.7 3.7  
Snow Depth 0.00 in    
Sea Level Pressure  
Sea Level Pressure 30.08 in    
Wind  
Wind Speed 8 mph (NE)    
Max Wind Speed 18 mph    
Max Gust Speed 22 mph    
Visibility 4 miles    
Events Fog , Snow    
T = Trace of Precipitation, MM = Missing Value Source: NWS Daily Summary

Daily Weather History Graph

Daily Weather History Graph

Search for Another Location

Airport or City:

Trip Planner

Search our weather history database for the weather conditions in past years. The results will help you decide how hot, cold, wet, or windy it might be!

Date:

Astronomy

Oct. 17, 2013 Rise Set
Actual Time 7:13 AM MDT 6:14 PM MDT
Civil Twilight 6:45 AM MDT 6:42 PM MDT
Nautical Twilight 6:13 AM MDT 7:14 PM MDT
Astronomical Twilight 5:41 AM MDT 7:46 PM MDT
Moon 5:30 PM MDT (10/17) 5:47 AM MDT (10/17)
Length of Visible Light 11h 57m
Length of Day
11h 01m
Waxing Gibbous, 98% of the Moon is Illuminated
Oct 17
Waxing Gibbous
Oct 18
Full
Oct 26
Last Quarter
Nov 3
New
Nov 9
First Quarter

Hourly Weather History & Observations

Time (MDT) Temp. Windchill Dew Point Humidity Pressure Visibility Wind Dir Wind Speed Gust Speed Precip Events Conditions
12:53 AM 33.1 °F 26.1 °F 21.9 °F 64% 30.02 in 10.0 mi SSW 8.1 mph - N/A   Clear
1:53 AM 36.0 °F 29.6 °F 23.0 °F 59% 30.00 in 10.0 mi WSW 8.1 mph - N/A   Partly Cloudy
2:53 AM 36.0 °F 29.0 °F 25.0 °F 64% 30.02 in 10.0 mi North 9.2 mph - N/A   Mostly Cloudy
3:53 AM 35.1 °F 27.4 °F 25.0 °F 67% 30.01 in 10.0 mi North 10.4 mph - N/A   Overcast
4:53 AM 33.1 °F 23.9 °F 25.0 °F 72% 30.04 in 10.0 mi North 12.7 mph - N/A   Scattered Clouds
5:53 AM 32.0 °F 26.4 °F 26.1 °F 79% 30.07 in 10.0 mi NNW 5.8 mph - N/A   Partly Cloudy
6:53 AM 30.9 °F 25.2 °F 26.1 °F 82% 30.10 in 10.0 mi NW 5.8 mph - N/A   Clear
7:50 AM 30.2 °F 23.4 °F 28.4 °F 93% 30.09 in 10.0 mi North 6.9 mph - N/A   Scattered Clouds
7:53 AM 30.9 °F 23.5 °F 28.0 °F 89% 30.12 in 10.0 mi North 8.1 mph - N/A   Scattered Clouds
8:16 AM 32.0 °F 24.2 °F 28.4 °F 87% 30.10 in 10.0 mi NNE 9.2 mph - N/A   Overcast
8:53 AM 32.0 °F 20.8 °F 28.0 °F 85% 30.14 in 10.0 mi North 17.3 mph 21.9 mph N/A   Overcast
9:53 AM 34.0 °F 24.2 °F 28.9 °F 82% 30.14 in 10.0 mi North 15.0 mph 20.7 mph N/A   Overcast
10:26 AM 33.8 °F 25.8 °F 28.4 °F 81% 30.11 in 10.0 mi North 10.4 mph - N/A   Overcast
10:53 AM 36.0 °F 28.0 °F 28.0 °F 73% 30.14 in 10.0 mi North 11.5 mph - N/A   Overcast
11:50 AM 35.6 °F 29.9 °F 28.4 °F 75% 30.11 in 10.0 mi North 6.9 mph - N/A   Overcast
11:53 AM 37.0 °F 32.4 °F 28.9 °F 73% 30.15 in 10.0 mi NNE 5.8 mph - N/A   Overcast
12:53 PM 37.9 °F 34.4 °F 30.0 °F 73% 30.11 in 4.0 mi NNW 4.6 mph - 0.00 in Snow Light Snow
1:53 PM 37.0 °F 31.0 °F 30.9 °F 79% 30.06 in 10.0 mi NNE 8.1 mph - 0.00 in   Overcast
2:18 PM 35.6 °F 30.7 °F 30.2 °F 81% 30.05 in 1.8 mi NE 5.8 mph - 0.00 in Snow Light Snow
2:36 PM 35.6 °F 30.7 °F 32.0 °F 87% 30.05 in 1.5 mi NE 5.8 mph - 0.01 in Snow Light Snow
2:53 PM 34.0 °F 28.0 °F 32.0 °F 92% 30.07 in 0.8 mi NE 6.9 mph - 0.02 in Snow Light Snow
3:03 PM 33.8 °F 28.6 °F 33.8 °F 100% 30.04 in 1.5 mi NE 5.8 mph - 0.00 in Snow Light Snow
3:24 PM 33.8 °F 28.6 °F 32.0 °F 93% 30.05 in 0.5 mi NNE 5.8 mph - 0.01 in Fog , Snow Snow
3:46 PM 33.8 °F 30.8 °F 32.0 °F 93% 30.04 in 1.0 mi ENE 3.5 mph - 0.02 in Snow Light Snow
3:53 PM 34.0 °F 29.8 °F 32.0 °F 92% 30.07 in 1.5 mi NE 4.6 mph - 0.02 in Snow Light Snow
4:00 PM 33.8 °F 29.6 °F 32.0 °F 93% 30.04 in 0.8 mi NE 4.6 mph - 0.01 in Snow Light Snow
4:22 PM 33.8 °F 28.6 °F 32.0 °F 93% 30.03 in 2.0 mi East 5.8 mph - 0.02 in Snow Light Snow
4:43 PM 33.8 °F 30.8 °F 32.0 °F 93% 30.04 in 1.2 mi ENE 3.5 mph - 0.02 in Snow Light Snow
4:53 PM 33.1 °F 28.7 °F 32.0 °F 96% 30.09 in 1.5 mi East 4.6 mph - 0.02 in Snow Light Snow
4:57 PM 33.8 °F 29.6 °F 32.0 °F 93% 30.04 in 1.0 mi East 4.6 mph - 0.00 in Snow Light Snow
5:05 PM 33.8 °F 29.6 °F 32.0 °F 93% 30.04 in 0.5 mi East 4.6 mph - 0.01 in Fog , Snow Snow
5:08 PM 33.8 °F 30.8 °F 32.0 °F 93% 30.05 in 0.2 mi East 3.5 mph - 0.02 in Fog , Snow Heavy Snow
5:23 PM 33.8 °F 29.6 °F 32.0 °F 93% 30.04 in 0.5 mi East 4.6 mph - 0.05 in Fog , Snow Light Snow
5:36 PM 33.8 °F - 32.0 °F 93% 30.04 in 1.2 mi Calm Calm - 0.05 in Snow Light Snow
5:44 PM 33.8 °F 29.6 °F 32.0 °F 93% 30.05 in 2.0 mi NE 4.6 mph - 0.05 in Snow Light Snow
5:53 PM 33.1 °F 28.7 °F 32.0 °F 96% 30.09 in 1.5 mi ENE 4.6 mph - 0.05 in Snow Light Snow
6:02 PM 33.8 °F 30.8 °F 32.0 °F 93% 30.05 in 1.0 mi North 3.5 mph - 0.00 in Snow Light Snow
6:25 PM 33.8 °F 30.8 °F 32.0 °F 93% 30.05 in 1.0 mi NNE 3.5 mph - 0.02 in Snow Light Snow
6:47 PM 32.0 °F 24.2 °F 32.0 °F 100% 30.05 in 1.0 mi NE 9.2 mph - 0.03 in Snow Light Snow
6:53 PM 32.0 °F 25.6 °F 30.9 °F 96% 30.11 in 1.8 mi ENE 6.9 mph - 0.03 in Snow Light Snow
7:00 PM 32.0 °F 25.6 °F 30.2 °F 93% 30.05 in 3.0 mi ENE 6.9 mph - 0.00 in Snow Light Snow
7:05 PM 32.0 °F 25.6 °F 30.2 °F 93% 30.05 in 3.0 mi ENE 6.9 mph - 0.00 in Snow Light Snow
7:20 PM 32.0 °F 25.6 °F 30.2 °F 93% 30.07 in 3.0 mi NE 6.9 mph - 0.00 in Snow Light Snow
7:29 PM 32.0 °F 25.6 °F 30.2 °F 93% 30.06 in 2.0 mi ENE 6.9 mph - 0.01 in Snow Light Snow
7:53 PM 30.9 °F 24.3 °F 30.0 °F 96% 30.14 in 4.0 mi NE 6.9 mph - 0.01 in Snow Light Snow
8:01 PM 30.2 °F 21.3 °F 30.2 °F 100% 30.06 in 2.0 mi NE 10.4 mph - 0.00 in Snow Light Snow
8:08 PM 30.2 °F 23.4 °F 30.2 °F 100% 30.07 in 1.0 mi NE 6.9 mph - 0.01 in Snow Light Snow
8:53 PM 30.9 °F 25.2 °F 28.9 °F 92% 30.12 in 0.8 mi ENE 5.8 mph - 0.03 in Snow Light Snow
9:05 PM 30.2 °F 22.6 °F 28.4 °F 93% 30.06 in 1.0 mi NE 8.1 mph - 0.01 in Snow Light Snow
9:15 PM 30.2 °F 23.4 °F 28.4 °F 93% 30.07 in 0.5 mi NNE 6.9 mph - 0.02 in Fog , Snow Snow
9:53 PM 30.0 °F 22.4 °F 28.9 °F 96% 30.14 in 0.8 mi NE 8.1 mph - 0.08 in Snow Light Snow
10:08 PM 30.2 °F 23.4 °F 28.4 °F 93% 30.08 in 1.0 mi NE 6.9 mph - 0.02 in Snow Light Snow
10:29 PM 30.2 °F 26.7 °F 28.4 °F 93% 30.08 in 1.5 mi ENE 3.5 mph - 0.03 in Snow Light Snow
10:48 PM 30.2 °F 26.7 °F 28.4 °F 93% 30.09 in 0.8 mi NE 3.5 mph - 0.04 in Snow Light Snow
10:53 PM 30.0 °F 26.5 °F 28.9 °F 96% 30.14 in 0.5 mi NE 3.5 mph - 0.05 in Fog , Snow Snow
11:01 PM 30.2 °F 26.7 °F 28.4 °F 93% 30.08 in 0.8 mi NE 3.5 mph - 0.01 in Snow Light Snow
11:53 PM 28.9 °F 25.2 °F 28.9 °F 100% 30.12 in 1.0 mi NE 3.5 mph - 0.06 in Snow Light Snow